Regional Weather Roundup
Issued by NWS

Home | Current Version | Previous Version | Text Only | Print | Product List | Glossary Off
Versions: 1 2 3 4 5 6 7 8 9 10 11 12 13 14 15 16 17 18 19 20 21 22 23 24 25 26 27 28 29 30 31 32 33 34 35 36 37 38 39 40 41 42 43 44 45 46 47 48 49 50

000
ASUS43 KLSX 031859
RWRMO

WEATHER SUMMARY FOR MISSOURI
NATIONAL WEATHER SERVICE SPRINGFIELD MO
200 PM CDT WED JUN 03 2015

NOTE: "FAIR" INDICATES FEW OR NO CLOUDS BELOW 12,000 FEET WITH NO
       SIGNIFICANT WEATHER AND/OR OBSTRUCTIONS TO VISIBILITY.
       CURRENT SKY AND/OR WEATHER CONDITIONS ARE NOT AVAILABLE FOR
       CHILLICOTHE AND FARMINGTON.

MOZ001>031-035>038-043-044-053-054-032000-
...NORTHERN AND WESTERN MISSOURI...

CITY           SKY/WX    TMP DP  RH WIND       PRES   REMARKS
KANSAS CTY INT CLOUDY    65  64  97 S18       29.90F
KANSAS C DTWN  LGT RAIN  67  62  84 S16G24    29.91S
LEE`S SUMMIT   CLOUDY    65  63  93 S13G18    29.96R
ST JOSEPH      CLOUDY    68  65  90 S14G24    29.88R
CHILLICOTHE      N/A     67  65  93 S8        29.89F
KIRKSVILLE     CLOUDY    68  65  90 S15       29.94F

$$
MOZ066>068-077>081-088>096-101>105-032000-
...SOUTHWEST MISSOURI...

CITY           SKY/WX    TMP DP  RH WIND       PRES   REMARKS
SPRINGFIELD    PTSUNNY   79  67  66 SE8       30.01S
JOPLIN         PTSUNNY   81  69  67 S7        29.98S

$$
MOZ032>034-039>042-045>050-055>058-069>072-032000-
...CENTRAL MISSOURI...

CITY           SKY/WX    TMP DP  RH WIND       PRES   REMARKS
COLUMBIA       CLOUDY    66  64  93 S3        30.04S
JEFFERSON CITY LGT RAIN  66  63  90 CALM      30.04S FOG
ROLLA          CLOUDY    69  62  78 SE7       30.03S
SEDALIA        RAIN      65  63  93 W6        30.07R FOG
OSAGE BEACH    CLOUDY    70  63  78 N9        30.05R

$$
MOZ051-052-059>065-032000-
...EAST CENTRAL MISSOURI...

CITY           SKY/WX    TMP DP  RH WIND       PRES   REMARKS
ST LOUIS INTL  PTSUNNY   74  59  59 VRB6      30.03F
SPIRIT OF STL  PTSUNNY   71  61  70 CALM      30.02F
ST CHARLES     MOSUNNY   73  60  63 S7        30.02F

$$
MOZ072>076-082>087-097>100-106>115-032000-
...SOUTH CENTRAL AND SOUTHEAST MISSOURI...

CITY           SKY/WX    TMP DP  RH WIND       PRES   REMARKS
CAPE GIRARDEAU SUNNY     74  60  61 W6        30.03F
FARMINGTON     CLOUDY    70  59  68 W5        30.08F
POPLAR BLUFF   CLOUDY    72  58  61 CALM      30.03F
WEST PLAINS    CLOUDY    68  61  78 SE5       30.06S

$$


USA.gov is the U.S. government's official web portal to all federal, state and local government web resources and services.